📊 Raw Sensor Data

Showing records 41226 to 41250 of 84,978 total

ID Distance (ft) Battery V Battery A Int Temp (°F) Int Humid (%) Ext Temp (°F) Solar V RSSI SNR Time Stamp
43765 15.2 3.98 0 102 44 94 5.10 -67 8 06/17/2025 03:30 PM
43764 15.2 4.06 0 103 42 94 5.10 -68 8 06/17/2025 03:15 PM
43763 15.2 3.98 0 103 41 92 5.10 -66 8 06/17/2025 03:00 PM
43762 15.2 4.09 0 100 41 94 5.10 -69 7 06/17/2025 02:45 PM
43761 15.2 3.98 0 99 41 93 5.20 -68 8 06/17/2025 02:30 PM
43760 15.2 4.12 0 97 41 91 5.10 -68 8 06/17/2025 02:15 PM
43759 15.2 3.98 0 95 41 89 5.10 -69 8 06/17/2025 02:00 PM
43758 15.1 3.98 0 94 42 88 5.10 -68 8 06/17/2025 01:45 PM
43757 15.2 3.98 0 92 42 85 5.10 -68 8 06/17/2025 01:30 PM
43756 15.2 3.98 0 90 43 84 5.10 -67 8 06/17/2025 01:15 PM
43755 15.2 4.12 0 89 42 84 5.10 -69 7 06/17/2025 12:45 PM
43754 15.2 3.99 0 87 43 84 5.10 -68 7 06/17/2025 12:30 PM
43753 15.2 3.98 0 86 43 83 5.10 -68 7 06/17/2025 12:15 PM
43752 15.2 3.98 0 85 43 84 5.10 -68 7 06/17/2025 12:00 PM
43751 15.3 4.00 0 83 43 82 5.10 -67 8 06/17/2025 11:45 AM
43750 15.3 4.02 0 82 43 85 5.10 -68 7 06/17/2025 11:30 AM
43749 15.3 3.98 0 81 43 79 5.10 -68 7 06/17/2025 11:15 AM
43748 15.3 3.98 0 79 43 82 5.10 -68 8 06/17/2025 11:00 AM
43747 15.3 4.03 0 79 43 76 5.10 -67 7 06/17/2025 10:45 AM
43746 15.3 3.98 0 78 43 76 5.10 -67 8 06/17/2025 10:30 AM
43745 15.3 4.13 0 77 43 79 5.10 -68 7 06/17/2025 10:15 AM
43744 15.3 3.98 0 76 43 72 5.10 -68 7 06/17/2025 10:00 AM
43743 15.4 3.98 0 76 43 76 5.10 -68 8 06/17/2025 09:45 AM
43742 15.1 3.98 0 75 43 78 5.10 -68 7 06/17/2025 09:30 AM
43741 15.4 3.98 0 73 44 77 5.10 -69 7 06/17/2025 09:15 AM